Ida Theresa — V7RQ9 — position and weather

sailwx.info

Track history (hours):
 
Tides and Currents Weather Stations Pressure Air Temp Water Temp Dewpoint Dewpoint Depression Visibility Wind Speed Wind Dir Waves Ship Positions

Ida Theresa

Last reported at 2016-Feb-15 02:10 UTC. Time now 2016-May-25 15:00 UTC.
Position N 08°04' W 017°09'.
Warning: this ship's position is months out of date.

Length 121 m; draft 9 m.

Type: Ship. MMSI: 538090386.

Date/timePositionNaut miles runAvg speedWind from/ knotsBaromVisibWave heightAir tempDewpointWater temp
2016-Feb-15 02:10N 08°04' W 017°09'  
2016-Feb-10 16:03N 27°39' W 015°16'611.5
2016-Feb-10 15:33N 27°44' W 015°15'1211.8
2016-Feb-10 14:33N 27°56' W 015°16'1211.7
2016-Feb-10 13:33N 28°06' W 015°21'4 3.4
2016-Feb-10 12:27N 28°09' W 015°24'0 0.0
2016-Feb-10 11:27N 28°09' W 015°24'0 0.0
2016-Feb-10 10:27N 28°09' W 015°24'0 0.0
2016-Feb-10 09:30N 28°09' W 015°24'0 0.0
2016-Feb-10 08:30N 28°09' W 015°24'0 0.0
2016-Feb-10 07:30N 28°09' W 015°24'0 0.0
2016-Feb-10 06:30N 28°09' W 015°24'0 0.0
2016-Feb-10 05:33N 28°09' W 015°24'0 0.0
2016-Feb-10 04:33N 28°09' W 015°24'1 1.1
2016-Feb-10 03:33N 28°09' W 015°23'4 4.2
2016-Feb-10 02:33N 28°08' W 015°18'1212.2
2016-Feb-10 01:33N 28°10' W 015°05'1110.9
2016-Feb-10 00:33N 28°18' W 014°56'1312.7
2016-Feb-09 23:33N 28°30' W 014°52'1212.5
2016-Feb-09 22:34N 28°42' W 014°49'1212.4
2016-Feb-09 21:33N 28°54' W 014°46'1312.5
2016-Feb-09 20:33N 29°06' W 014°43'1312.7
2016-Feb-09 19:33N 29°19' W 014°40'1312.6
2016-Feb-09 18:30N 29°32' W 014°37'1212.6
2016-Feb-09 17:33N 29°43' W 014°33'1512.6
2016-Feb-09 16:24N 29°57' W 014°30'1112.6
2016-Feb-09 15:33N 30°08' W 014°27'  
Track history (hours):
 
Tides and Currents Weather Stations Pressure Air Temp Water Temp Dewpoint Dewpoint Depression Visibility Wind Speed Wind Dir Waves Ship Positions

Ida Theresa

Last reported at 2016-Feb-15 02:10 UTC. Time now 2016-May-25 15:00 UTC.
Position N 08°04' W 017°09'.
Warning: this ship's position is months out of date.

Length 121 m; draft 9 m.

Type: Ship. MMSI: 538090386.

Date/timePositionNaut miles runAvg speedWind from/ knotsBaromVisibWave heightAir tempDewpointWater temp
2016-Feb-15 02:10N 08°04' W 017°09'  
2016-Feb-10 16:03N 27°39' W 015°16'611.5
2016-Feb-10 15:33N 27°44' W 015°15'1211.8
2016-Feb-10 14:33N 27°56' W 015°16'1211.7
2016-Feb-10 13:33N 28°06' W 015°21'4 3.4
2016-Feb-10 12:27N 28°09' W 015°24'0 0.0
2016-Feb-10 11:27N 28°09' W 015°24'0 0.0
2016-Feb-10 10:27N 28°09' W 015°24'0 0.0
2016-Feb-10 09:30N 28°09' W 015°24'0 0.0
2016-Feb-10 08:30N 28°09' W 015°24'0 0.0
2016-Feb-10 07:30N 28°09' W 015°24'0 0.0
2016-Feb-10 06:30N 28°09' W 015°24'0 0.0
2016-Feb-10 05:33N 28°09' W 015°24'0 0.0
2016-Feb-10 04:33N 28°09' W 015°24'1 1.1
2016-Feb-10 03:33N 28°09' W 015°23'4 4.2
2016-Feb-10 02:33N 28°08' W 015°18'1212.2
2016-Feb-10 01:33N 28°10' W 015°05'1110.9
2016-Feb-10 00:33N 28°18' W 014°56'1312.7
2016-Feb-09 23:33N 28°30' W 014°52'1212.5
2016-Feb-09 22:34N 28°42' W 014°49'1212.4
2016-Feb-09 21:33N 28°54' W 014°46'1312.5
2016-Feb-09 20:33N 29°06' W 014°43'1312.7
2016-Feb-09 19:33N 29°19' W 014°40'1312.6
2016-Feb-09 18:30N 29°32' W 014°37'1212.6
2016-Feb-09 17:33N 29°43' W 014°33'1512.6
2016-Feb-09 16:24N 29°57' W 014°30'1112.6
2016-Feb-09 15:33N 30°08' W 014°27'  

Dump ship's entire track history